STARLINK-35200, 65855

Orbit data source: Space-Track

STARLINK-35200, 65855 is a payload satellite owned by SpaceX/Seattle (US) in LEO that was launched on Fri, 03 Oct 2025 UTC via an FALCON 9 launch vehicle from the Air Force Western Test Range (AFWTR). Payload-class satellites include a variety of spacecraft equipped with specific instruments for various scientific and technological missions. These include communications satellites like Starlink; space stations such as the ISS; scientific satellites like the Hubble; Earth observation satellites from companies like Planet Labs, Umbra, and HawkEye 360; GPS; miniature CubeSats for education and research; and military/defense satellites.

Loading next visibility...
Identifier
65855, 2025-223B
Orbit
LEO
Country
Flag of USUS
Related business
Manufacturer
SpaceX/Seattle
Mission
Operational spacecraft
Bus & Motor
STARLINK V2MO, Unknown motor
Mass
575 kg wet, ~530 kg dry
Launch date (UTC)
2025-10-03 (2 weeks ago)
Launch vehicle
FALCON 9
Launch site
Air Force Western Test Range (AFWTR)
Object type
Payload
Rocket body
Debris
Shape & HBR
Unknown shape, 17.7 m
Radar Cross Section
RCS unknown

Expand to show TLE details & history
Last TLE update: 16 hours ago

TLE from 16 hours ago
0 STARLINK-35200
1 65855U 25223B   25290.44895977 -.00397804  00000-0 -30252-2 0  9991
2 65855  53.1525 243.8684 0002285  72.9527 287.1743 15.72732863  2217
Epoch: 2025-10-17T10:46Z
TLE epoch observation values (Epoch: 2025-10-17T10:46:30.124Z)
Latitude
0.00005°
Longitude
56.04875°
Altitude
351.552 km
Speed
7.7 km/s
True Right ascension
16h 15m 28s
True Declination
0° 00' 00"
Sunlit
Object was in daylight at epoch
Visualization orbit readout
Latitude
Unknown
Longitude
Unknown
Altitude
Unknown
Speed
Unknown
Apparent Right ascension
Unknown
Apparent Declination
Unknown
Sunlit
N/A
Visualization observer readout
Local Sidereal Time
21:28:13
Azimuth
Unknown
Elevation
Unknown
Doppler factor
Unknown
Orbital elements
Apogee altitude
352.89 km
Perigee altitude
349.815 km
Semi-major axis
6,729.49 km
Eccentricity
0.00023
Inclination
53.1525°
RAAN
243.8684°
Arg. of periapsis
72.9527°
True anomaly
287.14928°
Mean anomaly
287.1743°
Eccentric anomaly
287.16179°
Mean motion
3.93161 °/min
Orbital period
91.57 mins
BSTAR
-0.0030252
Loading maneuver chart data...
Computing Atmospheric mass density...
Loading historical data...
Loading historical data...
Loading historical data...
Loading historical data...
Loading historical data...
Loading historical data...
Loading historical data...

Documentation

Showing up to 5 results
|